Weather History for Monticello, KY

Change the Weather History Date:

Wednesday, February 15, 2012

  Actual Average Record
Temperature  
Mean Temperature 44 °F -  
Max Temperature 56 °F 52 °F 70 °F (1976)
Min Temperature 33 °F 34 °F -5 °F (1960)
Degree Days  
Heating Degree Days 20    
Moisture  
Dew Point 39 °F    
Average Humidity 77    
Maximum Humidity 100    
Minimum Humidity 51    
Precipitation  
Precipitation 0.00 in - - ()
Sea Level Pressure  
Sea Level Pressure 30.18 in    
Wind  
Wind Speed 3 mph (SE)    
Max Wind Speed 16 mph    
Max Gust Speed -    
Visibility 8 miles    
Events Rain    
Averages and records for this station are not official NWS values.
T = Trace of Precipitation, MM = Missing Value Source: NWS Daily Summary

Daily Weather History Graph

Daily Weather History Graph

Search for Another Location

Airport:

Trip Planner

Search our weather history database for the weather conditions in past years. The results will help you decide how hot, cold, wet, or windy it might be!

Date:

Astronomy

Feb. 15, 2012 Rise Set
Actual Time 6:28 AM CST 5:19 PM CST
Civil Twilight 6:01 AM CST 5:45 PM CST
Nautical Twilight 5:31 AM CST 6:16 PM CST
Astronomical Twilight 5:01 AM CST 6:46 PM CST
Moon 1:16 AM CST (2/15) 11:18 AM CST (2/15)
Length of Visible Light 11h 43m
Length of Day
10h 50m
Last Quarter, 38% of the Moon is Illuminated
Feb 15
Last Quarter
Feb 21
New
Feb 29
First Quarter
Mar 8
Full
Mar 14
Last Quarter

Hourly Weather History & Observations

Time (CST) Temp. Windchill Dew Point Humidity Pressure Visibility Wind Dir Wind Speed Gust Speed Precip Events Conditions
1:56 AM 36.9 °F - 36.9 °F 100% 30.22 in 5.0 mi Calm Calm - N/A   Overcast
3:56 AM 36.0 °F - 36.0 °F 100% 30.22 in 4.0 mi Calm Calm - N/A   Overcast
4:56 AM 36.0 °F - 36.0 °F 100% 30.22 in 6.0 mi Calm Calm - N/A   Overcast
6:19 AM 33.8 °F - 33.8 °F 100% 30.21 in 3.0 mi Calm Calm - N/A   Scattered Clouds
6:32 AM 33.8 °F - 33.8 °F 100% 30.21 in 2.0 mi Calm Calm - N/A   Clear
6:45 AM 33.8 °F - 33.8 °F 100% 30.22 in 4.0 mi Calm Calm - N/A   Clear
7:56 AM 38.8 °F - 38.8 °F 100% 30.28 in 9.0 mi Calm Calm - N/A   Scattered Clouds
8:56 AM 43.9 °F 40.5 °F 38.8 °F 82% 30.26 in 10.0 mi ESE 5.8 mph - N/A   Scattered Clouds
9:56 AM 46.9 °F - 38.8 °F 73% 30.26 in 10.0 mi SE 5.8 mph - N/A   Partly Cloudy
10:56 AM 50.0 °F - 38.8 °F 66% 30.25 in 10.0 mi ESE 6.9 mph - N/A   Clear
11:56 AM 54.0 °F - 41.0 °F 62% 30.20 in 10.0 mi ESE 9.2 mph - N/A   Clear
12:56 PM 54.9 °F - 38.8 °F 55% 30.17 in 10.0 mi ESE 8.1 mph - N/A   Partly Cloudy
1:56 PM 56.8 °F - 38.8 °F 51% 30.14 in 10.0 mi SE 6.9 mph - N/A   Clear
2:56 PM 55.9 °F - 37.9 °F 51% 30.13 in 10.0 mi SE 6.9 mph - N/A   Clear
4:56 PM 54.0 °F - 41.0 °F 62% 30.14 in 10.0 mi Calm Calm - N/A   Mostly Cloudy
5:56 PM 47.8 °F - 43.0 °F 83% 30.16 in 10.0 mi Calm Calm - N/A   Overcast
6:56 PM 46.9 °F - 41.9 °F 83% 30.16 in 10.0 mi Calm Calm - N/A   Scattered Clouds
7:56 PM 48.9 °F - 43.0 °F 80% 30.15 in 10.0 mi Variable 5.8 mph - 0.00 in Rain Light Rain
8:56 PM 50.9 °F - 39.9 °F 66% 30.09 in 10.0 mi South 4.6 mph - 0.00 in   Mostly Cloudy
9:56 PM 54.0 °F - 38.8 °F 57% 30.08 in 10.0 mi South 15.0 mph - N/A   Mostly Cloudy
10:56 PM 55.9 °F - 41.0 °F 57% 30.06 in 10.0 mi South 16.1 mph - 0.00 in Rain Light Rain
11:56 PM 54.0 °F - 45.0 °F 72% 30.10 in 6.0 mi South 10.4 mph - 0.00 in Rain Light Rain